Data No, UTC Date,UTC Time,Latitude,Longitude,Course(deg),Temp(degC),Sal(psu)
1330,2020/4/13,23:44,35-35.79N,139-47.18E,213,13.92,26.648
1331,2020/4/13,23:45,35-35.65N,139-47.14E,187,13.935,26.6081
1332,2020/4/13,23:46,35-35.51N,139-47.18E,162,13.896,26.6807
1333,2020/4/13,23:47,35-35.34N,139-47.26E,154,13.944,26.18
1334,2020/4/13,23:48,35-35.17N,139-47.41E,141,13.895,26.3123
1335,2020/4/13,23:49,35-35.00N,139-47.59E,139,13.926,26.1677
1336,2020/4/13,23:50,35-34.84N,139-47.76E,140,13.93,27.0544
1337,2020/4/13,23:51,35-34.65N,139-47.94E,143,13.907,27.7535
1338,2020/4/13,23:52,35-34.47N,139-48.13E,135,13.893,27.9845
1339,2020/4/13,23:53,35-34.32N,139-48.36E,127,13.915,27.7868
1340,2020/4/13,23:54,35-34.14N,139-48.63E,128,13.898,27.4848
1341,2020/4/13,23:55,35-33.99N,139-48.86E,127,13.886,27.7565
1342,2020/4/13,23:56,35-33.78N,139-49.21E,126,13.884,27.6644
1343,2020/4/13,23:57,35-33.61N,139-49.48E,126,13.818,27.7591
1344,2020/4/13,23:58,35-33.44N,139-49.78E,126,13.878,27.5602
1345,2020/4/13,23:59,35-33.26N,139-50.07E,125,13.887,27.5981
1,2020/4/14,0:00,35-33.08N,139-50.38E,126,13.857,27.4438
2,2020/4/14,0:01,35-32.85N,139-50.64E,142,13.823,27.3695
3,2020/4/14,0:02,35-32.55N,139-50.77E,164,13.802,26.5803
4,2020/4/14,0:03,35-32.25N,139-50.77E,178,13.767,25.2025
5,2020/4/14,0:04,35-31.93N,139-50.78E,179,13.742,25.598
6,2020/4/14,0:05,35-31.62N,139-50.77E,180,13.727,26.618
7,2020/4/14,0:06,35-31.35N,139-50.77E,181,13.731,27.4284
8,2020/4/14,0:07,35-30.97N,139-50.76E,180,13.732,28.144
9,2020/4/14,0:08,35-30.65N,139-50.76E,179,13.729,28.6348
10,2020/4/14,0:09,35-30.33N,139-50.76E,179,13.72,29.0835
11,2020/4/14,0:10,35-30.01N,139-50.77E,178,13.755,29.7083
12,2020/4/14,0:11,35-29.68N,139-50.74E,186,13.838,30.3648
13,2020/4/14,0:12,35-29.36N,139-50.66E,194,13.979,30.718
14,2020/4/14,0:13,35-29.08N,139-50.49E,210,14.173,30.923
15,2020/4/14,0:14,35-28.84N,139-50.25E,217,---,31.086
16,2020/4/14,0:15,35-28.60N,139-50.00E,221,14.262,31.1511
17,2020/4/14,0:16,35-28.37N,139-49.70E,226,14.259,31.2035
18,2020/4/14,0:17,35-28.18N,139-49.44E,230,14.234,31.245
19,2020/4/14,0:18,35-27.97N,139-49.13E,232,14.087,31.2703
20,2020/4/14,0:19,35-27.78N,139-48.81E,233,13.997,31.0086
21,2020/4/14,0:20,35-27.57N,139-48.47E,233,---,30.3578
22,2020/4/14,0:21,35-27.39N,139-48.18E,233,13.895,29.7384
23,2020/4/14,0:22,35-27.19N,139-47.85E,233,13.875,29.3659
24,2020/4/14,0:23,35-27.00N,139-47.53E,233,13.885,28.9748
25,2020/4/14,0:24,35-26.80N,139-47.22E,233,13.945,28.8878
26,2020/4/14,0:25,35-26.61N,139-46.90E,233,13.984,29.2005
27,2020/4/14,0:26,35-26.42N,139-46.58E,233,14.023,29.5793
28,2020/4/14,0:27,35-26.23N,139-46.26E,235,14.048,29.9276
29,2020/4/14,0:28,35-26.04N,139-45.92E,235,14.056,30.1352
30,2020/4/14,0:29,35-25.86N,139-45.60E,235,14.059,30.3836
31,2020/4/14,0:30,35-25.68N,139-45.27E,236,14.156,30.482
32,2020/4/14,0:31,35-25.51N,139-44.94E,236,14.182,30.8144
33,2020/4/14,0:32,35-25.33N,139-44.60E,236,14.186,31.0754
34,2020/4/14,0:33,35-25.16N,139-44.28E,235,14.198,31.2288
35,2020/4/14,0:34,35-24.97N,139-43.95E,235,14.222,31.2751
36,2020/4/14,0:35,35-24.79N,139-43.63E,235,14.204,31.3536
37,2020/4/14,0:36,35-24.61N,139-43.30E,235,14.175,31.3966
38,2020/4/14,0:37,35-24.41N,139-43.02E,223,14.212,31.4051
39,2020/4/14,0:38,35-24.13N,139-42.83E,205,14.181,31.4542
40,2020/4/14,0:39,35-23.84N,139-42.68E,203,14.141,31.3562
41,2020/4/14,0:40,35-23.53N,139-42.51E,203,14.11,31.0925
42,2020/4/14,0:41,35-23.24N,139-42.35E,203,14.086,30.9269
43,2020/4/14,0:42,35-22.94N,139-42.20E,200,14.129,30.7501
44,2020/4/14,0:43,35-22.59N,139-42.17E,179,14.197,30.8694
45,2020/4/14,0:44,35-22.29N,139-42.20E,174,14.28,31.0926
46,2020/4/14,0:45,35-21.99N,139-42.23E,175,14.308,31.4221
47,2020/4/14,0:46,35-21.75N,139-42.25E,175,14.282,31.6087
48,2020/4/14,0:47,35-21.51N,139-42.27E,175,14.225,31.6782
49,2020/4/14,0:48,35-21.26N,139-42.29E,175,14.202,31.6603
50,2020/4/14,0:49,35-21.00N,139-42.32E,174,14.212,31.6356
51,2020/4/14,0:50,35-20.76N,139-42.35E,173,14.227,31.6321
52,2020/4/14,0:51,35-20.55N,139-42.37E,174,14.233,31.6576
53,2020/4/14,0:52,35-20.35N,139-42.39E,174,14.231,31.6829
54,2020/4/14,0:53,35-20.12N,139-42.42E,175,14.247,31.7057
55,2020/4/14,0:54,35-19.90N,139-42.44E,175,14.27,31.7202
56,2020/4/14,0:55,35-19.69N,139-42.48E,163,14.296,31.7489
57,2020/4/14,0:56,35-19.52N,139-42.60E,147,14.322,31.7831
58,2020/4/14,0:57,35-19.35N,139-42.74E,145,14.314,31.8244
59,2020/4/14,0:58,35-19.15N,139-42.91E,144,14.322,31.8612
60,2020/4/14,0:59,35-18.97N,139-43.08E,143,14.361,31.8871
61,2020/4/14,1:00,35-18.80N,139-43.23E,143,14.369,31.9083
62,2020/4/14,1:01,35-18.62N,139-43.39E,143,14.387,31.9425
63,2020/4/14,1:02,35-18.45N,139-43.54E,143,14.406,31.9631
64,2020/4/14,1:03,35-18.28N,139-43.69E,143,14.429,31.99
65,2020/4/14,1:04,35-18.10N,139-43.85E,143,14.474,32.0281
66,2020/4/14,1:05,35-17.93N,139-44.00E,143,14.462,32.0855
67,2020/4/14,1:06,35-17.76N,139-44.16E,142,14.429,32.1382
68,2020/4/14,1:07,35-17.58N,139-44.33E,142,14.48,32.13
69,2020/4/14,1:08,35-17.43N,139-44.47E,142,14.529,32.1577
70,2020/4/14,1:09,35-17.26N,139-44.63E,142,14.564,32.2324
71,2020/4/14,1:10,35-17.09N,139-44.79E,141,14.597,32.2798
72,2020/4/14,1:11,35-16.91N,139-44.95E,143,14.623,32.3075
73,2020/4/14,1:12,35-16.74N,139-45.10E,143,14.61,32.3555
74,2020/4/14,1:13,35-16.57N,139-45.26E,144,14.598,32.3565
75,2020/4/14,1:14,35-16.39N,139-45.41E,143,14.579,32.3428
76,2020/4/14,1:15,35-16.21N,139-45.57E,143,14.58,32.3365
77,2020/4/14,1:16,35-16.04N,139-45.73E,143,14.617,32.3412
78,2020/4/14,1:17,35-15.86N,139-45.88E,144,14.634,32.3786
79,2020/4/14,1:18,35-15.68N,139-46.04E,145,14.647,32.4231
80,2020/4/14,1:19,35-15.51N,139-46.19E,144,14.564,32.4544
81,2020/4/14,1:20,35-15.31N,139-46.33E,153,14.564,32.4313
82,2020/4/14,1:21,35-15.08N,139-46.40E,170,14.597,32.426
83,2020/4/14,1:22,35-14.86N,139-46.41E,176,14.622,32.4495
84,2020/4/14,1:23,35-14.66N,139-46.42E,179,14.615,32.4735
85,2020/4/14,1:24,35-14.45N,139-46.42E,180,14.592,32.4606
86,2020/4/14,1:25,35-14.22N,139-46.41E,181,14.61,32.4227
87,2020/4/14,1:26,35-14.01N,139-46.40E,181,14.645,32.3957
88,2020/4/14,1:27,35-13.79N,139-46.40E,181,14.67,32.427
89,2020/4/14,1:28,35-13.56N,139-46.39E,181,14.704,32.4665
90,2020/4/14,1:29,35-13.34N,139-46.37E,182,14.751,32.5115
91,2020/4/14,1:30,35-13.12N,139-46.36E,184,14.786,32.555
92,2020/4/14,1:31,35-12.91N,139-46.33E,185,14.863,32.5983
93,2020/4/14,1:32,35-12.69N,139-46.29E,190,14.92,32.6568
94,2020/4/14,1:33,35-12.45N,139-46.22E,193,14.97,32.7262
95,2020/4/14,1:34,35-12.19N,139-46.14E,194,15.037,32.7868
96,2020/4/14,1:35,35-11.87N,139-46.04E,193,15.156,32.8516
97,2020/4/14,1:36,35-11.59N,139-45.96E,193,15.37,32.9518
98,2020/4/14,1:37,35-11.29N,139-45.87E,193,15.605,33.0916
99,2020/4/14,1:38,35-10.98N,139-45.78E,193,15.784,33.3249
100,2020/4/14,1:39,35-10.66N,139-45.68E,193,15.771,33.5196
101,2020/4/14,1:40,35-10.33N,139-45.58E,194,15.72,33.5753
102,2020/4/14,1:41,35-10.00N,139-45.48E,194,15.697,33.5947
103,2020/4/14,1:42,35-09.66N,139-45.37E,194,15.73,33.5983
104,2020/4/14,1:43,35-09.35N,139-45.28E,193,15.716,33.6051
105,2020/4/14,1:44,35-09.01N,139-45.18E,193,15.878,33.6284
106,2020/4/14,1:45,35-08.67N,139-45.09E,192,15.902,33.6851
107,2020/4/14,1:46,35-08.32N,139-45.00E,192,15.951,33.7443
108,2020/4/14,1:47,35-07.98N,139-44.91E,192,15.926,33.7627
109,2020/4/14,1:48,35-07.64N,139-44.81E,192,15.951,33.7703
110,2020/4/14,1:49,35-07.29N,139-44.71E,192,15.84,33.7703
111,2020/4/14,1:50,35-06.93N,139-44.62E,191,15.796,33.7918
112,2020/4/14,1:51,35-06.57N,139-44.53E,192,15.893,33.7796
113,2020/4/14,1:52,35-06.23N,139-44.43E,193,16.08,33.812
114,2020/4/14,1:53,35-05.87N,139-44.32E,194,16.228,33.8765
115,2020/4/14,1:54,35-05.50N,139-44.21E,192,16.23,33.9774
116,2020/4/14,1:55,35-05.15N,139-44.13E,190,16.201,34.025
117,2020/4/14,1:56,35-04.78N,139-44.04E,190,16.147,34.038
118,2020/4/14,1:57,35-04.41N,139-43.96E,190,16.129,34.0409
119,2020/4/14,1:58,35-04.03N,139-43.87E,190,16.142,34.0497
120,2020/4/14,1:59,35-03.67N,139-43.80E,189,16.334,34.0524
121,2020/4/14,2:00,35-03.29N,139-43.71E,190,16.373,34.1112
122,2020/4/14,2:01,35-02.93N,139-43.64E,190,16.481,34.1536
123,2020/4/14,2:02,35-02.55N,139-43.55E,190,16.511,34.1935
124,2020/4/14,2:03,35-02.17N,139-43.47E,189,16.508,34.223
125,2020/4/14,2:04,35-01.79N,139-43.39E,189,16.526,34.2356
126,2020/4/14,2:05,35-01.41N,139-43.32E,189,16.59,34.2365
127,2020/4/14,2:06,35-01.03N,139-43.24E,189,16.625,34.2421
128,2020/4/14,2:07,35-00.60N,139-43.15E,189,16.628,34.2435
129,2020/4/14,2:08,35-00.21N,139-43.07E,189,16.668,34.2395
130,2020/4/14,2:09,34-59.81N,139-42.98E,189,16.731,34.242
131,2020/4/14,2:10,34-59.43N,139-42.91E,189,16.646,34.2405
132,2020/4/14,2:11,34-59.02N,139-42.82E,189,16.593,34.2204
133,2020/4/14,2:12,34-58.65N,139-42.75E,189,16.65,34.2081
134,2020/4/14,2:13,34-58.26N,139-42.68E,187,16.611,34.1999
135,2020/4/14,2:14,34-57.88N,139-42.70E,176,16.596,34.1865
136,2020/4/14,2:15,34-57.51N,139-42.80E,165,16.608,34.1844
137,2020/4/14,2:16,34-57.14N,139-42.95E,160,16.619,34.1915
138,2020/4/14,2:17,34-56.80N,139-43.18E,148,16.603,34.193
139,2020/4/14,2:18,34-56.48N,139-43.45E,145,16.654,34.1969
140,2020/4/14,2:19,34-56.15N,139-43.73E,144,16.607,34.2168
141,2020/4/14,2:20,34-55.86N,139-43.99E,144,16.568,34.2224
142,2020/4/14,2:21,34-55.54N,139-44.26E,144,16.556,34.224
143,2020/4/14,2:22,34-55.21N,139-44.53E,146,16.437,34.228
144,2020/4/14,2:23,34-54.88N,139-44.79E,146,16.443,34.2226
145,2020/4/14,2:24,34-54.54N,139-45.05E,147,16.452,34.2198
146,2020/4/14,2:25,34-54.20N,139-45.33E,146,16.544,34.219
147,2020/4/14,2:26,34-53.82N,139-45.64E,146,16.446,34.2215
148,2020/4/14,2:27,34-53.48N,139-45.91E,146,16.339,34.2229
149,2020/4/14,2:28,34-53.13N,139-46.19E,146,16.28,34.224
150,2020/4/14,2:29,34-52.78N,139-46.47E,146,16.263,34.2237
151,2020/4/14,2:30,34-52.48N,139-46.69E,146,16.334,34.2212
152,2020/4/14,2:31,34-52.13N,139-46.96E,146,16.305,34.2229
153,2020/4/14,2:32,34-51.81N,139-47.25E,143,16.198,34.2212
154,2020/4/14,2:33,34-51.48N,139-47.56E,139,16.062,34.2199
155,2020/4/14,2:34,34-51.15N,139-47.94E,135,16.031,34.215
156,2020/4/14,2:35,34-50.86N,139-48.33E,131,16.128,34.2177
157,2020/4/14,2:36,34-50.63N,139-48.70E,125,16.141,34.2202
158,2020/4/14,2:37,34-50.40N,139-49.18E,119,16.294,34.2187
159,2020/4/14,2:38,34-50.25N,139-49.54E,115,16.359,34.2202
160,2020/4/14,2:39,34-50.09N,139-50.00E,113,16.255,34.2213
161,2020/4/14,2:40,34-49.95N,139-50.42E,111,16.195,34.2175
162,2020/4/14,2:41,34-49.81N,139-50.87E,111,16.483,34.2187
163,2020/4/14,2:42,34-49.66N,139-51.32E,110,16.702,34.2222
164,2020/4/14,2:43,34-49.55N,139-51.68E,109,16.885,34.2296
165,2020/4/14,2:44,34-49.42N,139-52.12E,110,16.949,34.2466
166,2020/4/14,2:45,34-49.29N,139-52.63E,106,17.037,34.2573
167,2020/4/14,2:46,34-49.21N,139-53.05E,102,16.997,34.2654
168,2020/4/14,2:47,34-49.13N,139-53.49E,99,17.198,34.2652
169,2020/4/14,2:48,34-49.07N,139-54.00E,98,17.33,34.2728
170,2020/4/14,2:49,34-49.03N,139-54.43E,94,17.411,34.2802
171,2020/4/14,2:50,34-49.04N,139-54.92E,86,---,34.2862
172,2020/4/14,2:51,34-49.11N,139-55.45E,79,18.315,34.2974
173,2020/4/14,2:52,34-49.24N,139-55.87E,67,18.352,34.3447
174,2020/4/14,2:53,34-49.41N,139-56.25E,61,18.37,34.3552
175,2020/4/14,2:54,34-49.60N,139-56.65E,61,18.342,34.3585
176,2020/4/14,2:55,34-49.79N,139-57.05E,59,18.265,34.3625
177,2020/4/14,2:56,34-50.00N,139-57.47E,59,17.97,34.3631
178,2020/4/14,2:57,34-50.19N,139-57.84E,57,17.689,34.351
179,2020/4/14,2:58,34-50.41N,139-58.24E,55,17.567,34.3305
180,2020/4/14,2:59,34-50.65N,139-58.68E,56,17.22,34.318
181,2020/4/14,3:00,34-50.84N,139-59.03E,57,17.019,34.3008
182,2020/4/14,3:01,34-51.06N,139-59.42E,56,16.925,34.284
183,2020/4/14,3:02,34-51.27N,139-59.81E,56,16.577,34.2779
184,2020/4/14,3:03,34-51.45N,140-00.15E,56,16.243,34.2708
185,2020/4/14,3:04,34-51.66N,140-00.53E,56,16.019,34.2598
186,2020/4/14,3:05,34-51.85N,140-00.89E,57,15.959,34.2716
187,2020/4/14,3:06,34-52.04N,140-01.25E,58,15.964,34.2593
188,2020/4/14,3:07,34-52.22N,140-01.59E,57,16.052,34.2603
189,2020/4/14,3:08,34-52.40N,140-01.93E,58,16.143,34.2573
190,2020/4/14,3:09,34-52.58N,140-02.29E,57,16.182,34.2547
191,2020/4/14,3:10,34-52.79N,140-02.67E,57,16.187,34.2524
192,2020/4/14,3:11,34-52.95N,140-02.98E,57,16.191,34.2505
193,2020/4/14,3:12,34-53.14N,140-03.33E,57,16.21,34.25
194,2020/4/14,3:13,34-53.32N,140-03.69E,57,16.217,34.2501
195,2020/4/14,3:14,34-53.51N,140-04.05E,58,16.222,34.2544
196,2020/4/14,3:15,34-53.68N,140-04.38E,57,16.222,34.2573
197,2020/4/14,3:16,34-53.88N,140-04.76E,57,16.223,34.2613
198,2020/4/14,3:17,34-54.05N,140-05.09E,57,16.236,34.2649
199,2020/4/14,3:18,34-54.24N,140-05.45E,58,16.235,34.2697
200,2020/4/14,3:19,34-54.43N,140-05.81E,58,16.248,34.2726
201,2020/4/14,3:20,34-54.60N,140-06.15E,57,16.248,34.2744
202,2020/4/14,3:21,34-54.79N,140-06.51E,57,16.23,34.2751
203,2020/4/14,3:22,34-54.98N,140-06.87E,56,16.155,34.2747
204,2020/4/14,3:23,34-55.17N,140-07.22E,57,16.1,34.2732
205,2020/4/14,3:24,34-55.35N,140-07.56E,57,16.109,34.2679
206,2020/4/14,3:25,34-55.53N,140-07.91E,57,16.118,34.2629
207,2020/4/14,3:26,34-55.72N,140-08.25E,57,16.133,34.2621
208,2020/4/14,3:27,34-55.90N,140-08.59E,57,16.145,34.2622
209,2020/4/14,3:28,34-56.10N,140-08.96E,57,16.155,34.2626
210,2020/4/14,3:29,34-56.26N,140-09.29E,58,16.16,34.2621
211,2020/4/14,3:30,34-56.42N,140-09.59E,58,16.153,34.2628
212,2020/4/14,3:31,34-56.60N,140-09.95E,57,16.146,34.2629
213,2020/4/14,3:32,34-56.77N,140-10.28E,58,16.12,34.2619
214,2020/4/14,3:33,34-56.96N,140-10.68E,59,16.082,34.2603
215,2020/4/14,3:34,34-57.15N,140-11.04E,58,16.06,34.2583
216,2020/4/14,3:35,34-57.32N,140-11.38E,57,16.055,34.2569
217,2020/4/14,3:36,34-57.49N,140-11.73E,59,16.074,34.2545
218,2020/4/14,3:37,34-57.65N,140-12.03E,57,16.094,34.2591
219,2020/4/14,3:38,34-57.83N,140-12.39E,57,16.114,34.2617
220,2020/4/14,3:39,34-58.00N,140-12.72E,58,16.119,34.2653
221,2020/4/14,3:40,34-58.18N,140-13.08E,57,16.11,34.2684
222,2020/4/14,3:41,34-58.37N,140-13.46E,58,16.092,34.2689
223,2020/4/14,3:42,34-58.55N,140-13.83E,59,16.059,34.2684
224,2020/4/14,3:43,34-58.73N,140-14.16E,58,16.104,34.2653
225,2020/4/14,3:44,34-58.91N,140-14.53E,58,16.311,34.2648
226,2020/4/14,3:45,34-59.06N,140-14.84E,59,16.548,34.2721
227,2020/4/14,3:46,34-59.23N,140-15.20E,60,16.761,34.2785
228,2020/4/14,3:47,34-59.39N,140-15.56E,61,17.296,34.2804
229,2020/4/14,3:48,34-59.56N,140-15.94E,60,17.487,34.2985
230,2020/4/14,3:49,34-59.74N,140-16.31E,59,17.628,34.3107
231,2020/4/14,3:50,34-59.93N,140-16.65E,46,17.47,34.3213
232,2020/4/14,3:51,35-00.19N,140-16.91E,38,17.396,34.3213
233,2020/4/14,3:52,35-00.48N,140-17.17E,37,16.593,34.3149
234,2020/4/14,3:53,35-00.74N,140-17.40E,36,16.499,34.2829
235,2020/4/14,3:54,35-01.00N,140-17.63E,35,16.467,34.2847
236,2020/4/14,3:55,35-01.27N,140-17.86E,34,16.427,34.2831
237,2020/4/14,3:56,35-01.54N,140-18.12E,39,16.388,34.2858
238,2020/4/14,3:57,35-01.79N,140-18.39E,41,16.381,34.2808
239,2020/4/14,3:58,35-02.05N,140-18.66E,41,16.414,34.2791
240,2020/4/14,3:59,35-02.29N,140-18.93E,41,16.439,34.2798
241,2020/4/14,4:00,35-02.53N,140-19.21E,46,16.445,34.2821
242,2020/4/14,4:01,35-02.75N,140-19.49E,44,16.446,34.2835
243,2020/4/14,4:02,35-02.99N,140-19.76E,41,16.412,34.2862
244,2020/4/14,4:03,35-03.21N,140-19.99E,41,16.404,34.2863
245,2020/4/14,4:04,35-03.42N,140-20.25E,45,16.424,34.2884
246,2020/4/14,4:05,35-03.65N,140-20.54E,46,16.424,34.2902
247,2020/4/14,4:06,35-03.87N,140-20.80E,43,16.408,34.2906
248,2020/4/14,4:07,35-04.07N,140-21.03E,41,16.428,34.2905
249,2020/4/14,4:08,35-04.30N,140-21.30E,45,16.419,34.2906
250,2020/4/14,4:09,35-04.49N,140-21.55E,46,16.341,34.2912
251,2020/4/14,4:10,35-04.72N,140-21.83E,45,16.154,34.2902
252,2020/4/14,4:11,35-04.92N,140-22.09E,46,16.132,34.2868
253,2020/4/14,4:12,35-05.14N,140-22.37E,46,16.143,34.2867
254,2020/4/14,4:13,35-05.36N,140-22.64E,44,16.113,34.2877
255,2020/4/14,4:14,35-05.60N,140-22.89E,40,16.07,34.2876
256,2020/4/14,4:15,35-05.86N,140-23.16E,41,16.008,34.283
257,2020/4/14,4:16,35-06.06N,140-23.43E,48,15.416,34.2739
258,2020/4/14,4:17,35-06.26N,140-23.70E,45,15.37,34.242
259,2020/4/14,4:18,35-06.48N,140-23.94E,43,15.382,34.2318
260,2020/4/14,4:19,35-06.73N,140-24.21E,41,15.412,34.2281
261,2020/4/14,4:20,35-06.93N,140-24.42E,41,15.428,34.224
262,2020/4/14,4:21,35-07.15N,140-24.68E,44,15.471,34.2244
263,2020/4/14,4:22,35-07.36N,140-24.94E,45,15.478,34.225
264,2020/4/14,4:23,35-07.58N,140-25.19E,43,15.471,34.2235
265,2020/4/14,4:24,35-07.81N,140-25.43E,39,15.487,34.2195
266,2020/4/14,4:25,35-08.02N,140-25.66E,41,15.5,34.2162
267,2020/4/14,4:26,35-08.23N,140-25.92E,45,15.512,34.2151
268,2020/4/14,4:27,35-08.43N,140-26.17E,46,15.506,34.2151
269,2020/4/14,4:28,35-08.64N,140-26.43E,44,15.504,34.2142
270,2020/4/14,4:29,35-08.91N,140-26.74E,42,15.512,34.213
271,2020/4/14,4:30,35-09.06N,140-26.92E,43,15.513,34.2147
272,2020/4/14,4:31,35-09.25N,140-27.13E,44,15.505,34.2158
273,2020/4/14,4:32,35-09.50N,140-27.43E,43,15.494,34.2173
274,2020/4/14,4:33,35-09.71N,140-27.66E,42,15.484,34.2165
275,2020/4/14,4:34,35-09.93N,140-27.91E,43,15.466,34.2143
276,2020/4/14,4:35,35-10.12N,140-28.14E,44,15.458,34.2117
277,2020/4/14,4:36,35-10.34N,140-28.39E,43,15.447,34.2102
278,2020/4/14,4:37,35-10.55N,140-28.64E,42,15.431,34.2078
279,2020/4/14,4:38,35-10.78N,140-28.89E,41,15.41,34.2044
280,2020/4/14,4:39,35-11.00N,140-29.14E,44,15.393,34.2049
281,2020/4/14,4:40,35-11.23N,140-29.44E,45,15.382,34.2036
282,2020/4/14,4:41,35-11.44N,140-29.68E,41,15.358,34.2015
283,2020/4/14,4:42,35-11.68N,140-29.93E,42,15.334,34.2016
284,2020/4/14,4:43,35-11.89N,140-30.18E,45,15.285,34.2027
285,2020/4/14,4:44,35-12.10N,140-30.43E,44,15.115,34.203
286,2020/4/14,4:45,35-12.32N,140-30.68E,42,15.056,34.2015
287,2020/4/14,4:46,35-12.54N,140-30.92E,41,15.038,34.204
288,2020/4/14,4:47,35-12.77N,140-31.16E,40,---,34.2044
289,2020/4/14,4:48,35-13.01N,140-31.42E,42,15.076,34.2098
290,2020/4/14,4:49,35-13.21N,140-31.63E,40,15.087,34.2116
291,2020/4/14,4:50,35-13.44N,140-31.85E,38,15.095,34.213
292,2020/4/14,4:51,35-13.67N,140-32.09E,39,15.087,34.215
293,2020/4/14,4:52,35-13.92N,140-32.35E,43,15.085,34.2148
294,2020/4/14,4:53,35-14.12N,140-32.58E,42,15.061,34.2154
295,2020/4/14,4:54,35-14.33N,140-32.78E,37,15.014,34.2148
296,2020/4/14,4:55,35-14.54N,140-32.98E,37,14.995,34.2122
297,2020/4/14,4:56,35-14.75N,140-33.20E,43,14.957,34.2126
298,2020/4/14,4:57,35-14.97N,140-33.45E,42,14.927,34.2126
299,2020/4/14,4:58,35-15.17N,140-33.66E,41,14.854,34.2106
300,2020/4/14,4:59,35-15.39N,140-33.89E,39,14.776,34.209
301,2020/4/14,5:00,35-15.58N,140-34.09E,39,14.718,34.2066
302,2020/4/14,5:01,35-15.79N,140-34.31E,39,14.684,34.2082
303,2020/4/14,5:02,35-16.01N,140-34.53E,40,14.686,34.2054
304,2020/4/14,5:03,35-16.22N,140-34.75E,41,14.683,34.2043
305,2020/4/14,5:04,35-16.42N,140-34.96E,39,14.668,34.2062
306,2020/4/14,5:05,35-16.65N,140-35.17E,37,14.644,34.2031
307,2020/4/14,5:06,35-16.87N,140-35.37E,37,14.634,34.2035
308,2020/4/14,5:07,35-17.08N,140-35.57E,36,14.615,34.2014
309,2020/4/14,5:08,35-17.31N,140-35.78E,36,14.602,34.2009
310,2020/4/14,5:09,35-17.56N,140-36.00E,36,14.584,34.2009
311,2020/4/14,5:10,35-17.80N,140-36.21E,36,14.586,34.2001
312,2020/4/14,5:11,35-18.03N,140-36.42E,36,14.609,34.2008
313,2020/4/14,5:12,35-18.25N,140-36.62E,36,14.65,34.2004
314,2020/4/14,5:13,35-18.50N,140-36.84E,36,14.646,34.2023
315,2020/4/14,5:14,35-18.71N,140-37.03E,35,---,34.2017
316,2020/4/14,5:15,35-18.93N,140-37.23E,35,14.733,34.2029
317,2020/4/14,5:16,35-19.16N,140-37.44E,35,14.81,34.2061
318,2020/4/14,5:17,35-19.39N,140-37.63E,36,14.923,34.21
319,2020/4/14,5:18,35-19.59N,140-37.80E,35,15.026,34.2136
320,2020/4/14,5:19,35-19.81N,140-38.00E,35,15.083,34.2187
321,2020/4/14,5:20,35-20.04N,140-38.19E,34,15.115,34.222
322,2020/4/14,5:21,35-20.27N,140-38.38E,34,15.137,34.2245
323,2020/4/14,5:22,35-20.50N,140-38.58E,34,15.171,34.2254
324,2020/4/14,5:23,35-20.72N,140-38.77E,35,15.196,34.2273
325,2020/4/14,5:24,35-20.96N,140-38.96E,33,15.224,34.2276
326,2020/4/14,5:25,35-21.20N,140-39.14E,30,15.248,34.2286
327,2020/4/14,5:26,35-21.45N,140-39.32E,29,15.264,34.23
328,2020/4/14,5:27,35-21.70N,140-39.48E,28,15.28,34.2297
329,2020/4/14,5:28,35-21.96N,140-39.65E,28,15.312,34.2306
330,2020/4/14,5:29,35-22.20N,140-39.82E,29,15.342,34.2318
331,2020/4/14,5:30,35-22.45N,140-39.99E,29,15.364,34.2332
332,2020/4/14,5:31,35-22.71N,140-40.16E,29,15.358,34.2344
333,2020/4/14,5:32,35-22.96N,140-40.33E,28,15.337,34.2349
334,2020/4/14,5:33,35-23.22N,140-40.50E,29,15.301,34.2346
335,2020/4/14,5:34,35-23.46N,140-40.66E,28,15.247,34.2333
336,2020/4/14,5:35,35-23.72N,140-40.83E,28,15.166,34.2297
337,2020/4/14,5:36,35-23.96N,140-40.99E,28,15.098,34.2272
338,2020/4/14,5:37,35-24.21N,140-41.16E,27,15.107,34.2217
339,2020/4/14,5:38,35-24.48N,140-41.34E,28,15.14,34.2238
340,2020/4/14,5:39,35-24.71N,140-41.49E,28,15.175,34.2226
341,2020/4/14,5:40,35-24.97N,140-41.65E,27,15.21,34.2248
342,2020/4/14,5:41,35-25.22N,140-41.82E,29,15.23,34.2278
343,2020/4/14,5:42,35-25.48N,140-42.00E,30,15.263,34.2293
344,2020/4/14,5:43,35-25.72N,140-42.17E,31,15.289,34.2329
345,2020/4/14,5:44,35-25.96N,140-42.37E,32,15.292,34.2348
346,2020/4/14,5:45,35-26.22N,140-42.56E,32,15.101,34.237
347,2020/4/14,5:46,35-26.46N,140-42.75E,32,14.99,34.2259
348,2020/4/14,5:47,35-26.71N,140-42.95E,32,14.879,34.1648
349,2020/4/14,5:48,35-26.96N,140-43.14E,32,14.791,34.1278
350,2020/4/14,5:49,35-27.21N,140-43.33E,32,14.711,34.0801
351,2020/4/14,5:50,35-27.44N,140-43.52E,33,14.61,34.048
352,2020/4/14,5:51,35-27.68N,140-43.73E,35,14.458,34.0134
353,2020/4/14,5:52,35-27.91N,140-43.93E,36,14.307,33.972
354,2020/4/14,5:53,35-28.15N,140-44.14E,35,14.104,33.9213
355,2020/4/14,5:54,35-28.38N,140-44.35E,36,13.977,33.8665
356,2020/4/14,5:55,35-28.61N,140-44.56E,36,13.848,33.8174
357,2020/4/14,5:56,35-28.84N,140-44.76E,36,13.76,33.7806
358,2020/4/14,5:57,35-29.08N,140-44.98E,36,13.648,33.7483
359,2020/4/14,5:58,35-29.38N,140-45.25E,37,13.56,33.7132
360,2020/4/14,5:59,35-29.59N,140-45.45E,37,13.496,33.6923
361,2020/4/14,6:00,35-29.79N,140-45.63E,37,13.369,33.6671
362,2020/4/14,6:01,35-30.02N,140-45.85E,37,13.341,33.6398
363,2020/4/14,6:02,35-30.26N,140-46.07E,37,13.364,33.6177
364,2020/4/14,6:03,35-30.53N,140-46.33E,37,13.38,33.6042
365,2020/4/14,6:04,35-30.76N,140-46.54E,38,13.363,33.5788
366,2020/4/14,6:05,35-30.99N,140-46.75E,37,13.372,33.533
367,2020/4/14,6:06,35-31.23N,140-46.97E,37,13.349,33.5253
368,2020/4/14,6:07,35-31.43N,140-47.16E,37,13.317,33.4349
369,2020/4/14,6:08,35-31.66N,140-47.37E,37,13.302,33.3885
370,2020/4/14,6:09,35-31.88N,140-47.58E,37,13.297,33.3841
371,2020/4/14,6:10,35-32.11N,140-47.79E,36,13.289,33.3883
372,2020/4/14,6:11,35-32.33N,140-48.00E,37,13.298,33.3657
373,2020/4/14,6:12,35-32.52N,140-48.19E,37,13.296,33.3466
374,2020/4/14,6:13,35-32.75N,140-48.40E,37,13.285,33.3197
375,2020/4/14,6:14,35-32.97N,140-48.60E,37,13.276,33.3001
376,2020/4/14,6:15,35-33.18N,140-48.79E,37,13.26,33.2939
377,2020/4/14,6:16,35-33.41N,140-49.02E,38,13.244,33.2981
378,2020/4/14,6:17,35-33.60N,140-49.19E,37,13.231,33.308
379,2020/4/14,6:18,35-33.80N,140-49.39E,37,13.227,33.3162
380,2020/4/14,6:19,35-34.01N,140-49.59E,38,13.223,33.3136
381,2020/4/14,6:20,35-34.21N,140-49.78E,37,13.219,33.3075
382,2020/4/14,6:21,35-34.41N,140-49.98E,37,13.214,33.3029
383,2020/4/14,6:22,35-34.61N,140-50.18E,39,13.212,33.3019
384,2020/4/14,6:23,35-34.80N,140-50.36E,38,13.2,33.3052
385,2020/4/14,6:24,35-35.00N,140-50.56E,39,13.18,33.3131
386,2020/4/14,6:25,35-35.19N,140-50.75E,39,13.17,33.3252
387,2020/4/14,6:26,35-35.38N,140-50.94E,38,13.17,33.3426
388,2020/4/14,6:27,35-35.59N,140-51.13E,37,13.156,33.3567
389,2020/4/14,6:28,35-35.79N,140-51.33E,39,13.144,33.364